This is the latest recevied weather packets stored in our database for station/object NO9B. If no packets are shown the sender has not sent any weather packets the latest 1 day(s).
| Time | Temp. | Humidity | Pressure | Rain* | Wind** | Luminosity | Snow |
|---|---|---|---|---|---|---|---|
| 1778049090 | 4.44° C | 66% | 1012.1 hPa | 0 mm | 0.45 m/s, 272° | 0 W/m² | - |
| 1778048789 | 4.44° C | 66% | 1012.1 hPa | 0 mm | 0.45 m/s, 277° | 0 W/m² | - |
| 1778048486 | 4.44° C | 65% | 1011.9 hPa | 0 mm | 0.45 m/s, 280° | 0 W/m² | - |
| 1778048181 | 5° C | 65% | 1012.1 hPa | 0 mm | 0.45 m/s, 286° | 0 W/m² | - |
| 1778047880 | 5° C | 65% | 1012.1 hPa | 0 mm | 0.45 m/s, 273° | 0 W/m² | - |
| 1778047578 | 5° C | 63% | 1012 hPa | 0 mm | 0 m/s | 0 W/m² | - |
| 1778047274 | 5° C | 66% | 1011.9 hPa | 0 mm | 0 m/s | 0 W/m² | - |
| 1778046972 | 5° C | 66% | 1012 hPa | 0 mm | 0 m/s | 0 W/m² | - |
| 1778046668 | 5.56° C | 66% | 1012.1 hPa | 0 mm | 0.45 m/s, 287° | 0 W/m² | - |
| 1778046365 | 5.56° C | 64% | 1012.1 hPa | 0 mm | 0.89 m/s, 280° | 0 W/m² | - |
| 1778046061 | 5° C | 61% | 1012.2 hPa | 0 mm | 0.89 m/s, 287° | 0 W/m² | - |
| 1778045759 | 5° C | 64% | 1012.3 hPa | 0 mm | 0.45 m/s, 286° | 0 W/m² | - |
| 1778045458 | 5° C | 64% | 1012.3 hPa | 0 mm | 0.45 m/s, 278° | 0 W/m² | - |
| 1778045155 | 5° C | 63% | 1012.3 hPa | 0 mm | 0.89 m/s, 296° | 0 W/m² | - |
| 1778044853 | 5° C | 61% | 1012.4 hPa | 0 mm | 0.45 m/s, 278° | 0 W/m² | - |
| 1778044549 | 5° C | 63% | 1012.2 hPa | 0 mm | 0 m/s | 0 W/m² | - |
| 1778044246 | 5° C | 62% | 1012.4 hPa | 0 mm | 0.45 m/s, 290° | 0 W/m² | - |
| 1778043944 | 5.56° C | 61% | 1012.4 hPa | 0 mm | 0 m/s | 0 W/m² | - |
| 1778043641 | 5.56° C | 60% | 1012.3 hPa | 0 mm | 0.45 m/s, 272° | 0 W/m² | - |
| 1778043338 | 5.56° C | 59% | 1012.2 hPa | 0 mm | 0.45 m/s, 294° | 0 W/m² | - |
| 1778043034 | 5.56° C | 58% | 1012.2 hPa | 0 mm | 0 m/s | 0 W/m² | - |
| 1778042732 | 5.56° C | 56% | 1012.2 hPa | 0 mm | 0.45 m/s, 293° | 0 W/m² | - |
| 1778042429 | 6.11° C | 56% | 1012.2 hPa | 0 mm | 0.45 m/s, 291° | 0 W/m² | - |
| 1778042126 | 6.11° C | 54% | 1012.2 hPa | 0 mm | 0.45 m/s, 287° | 0 W/m² | - |
| 1778041825 | 6.67° C | 52% | 1012.2 hPa | 0 mm | 0 m/s | 0 W/m² | - |
* Rain latest hour (hover to see other rain measurements)
** Current wind speed in m/s (hover to see current wind gust speed)